Year,Month,Day,Hour,Minute,Value (Times are PST for windspeed in km/hr)
2020,01,16,00,00,15.30
2020,01,16,00,01,15.90
2020,01,16,00,02,16.10
2020,01,16,00,03,13.90
2020,01,16,00,04,16.20
2020,01,16,00,05,17.20
2020,01,16,00,06,13.50
2020,01,16,00,07,20.30
2020,01,16,00,08,11.90
2020,01,16,00,09,14.90
2020,01,16,00,10,19.90
2020,01,16,00,11,12.40
2020,01,16,00,12,13.50
2020,01,16,00,13,15.40
2020,01,16,00,14,18.30
2020,01,16,00,15,15.70
2020,01,16,00,16,18.70
2020,01,16,00,17,22.50
2020,01,16,00,18,16.50
2020,01,16,00,19,15.70
2020,01,16,00,20,19.70
2020,01,16,00,21,20.30
2020,01,16,00,22,20.90
2020,01,16,00,23,22.30
2020,01,16,00,24,25.50
2020,01,16,00,25,19.80
2020,01,16,00,26,22.00
2020,01,16,00,27,21.20
2020,01,16,00,28,17.60
2020,01,16,00,29,15.50
2020,01,16,00,30,14.20
2020,01,16,00,31,20.30
2020,01,16,00,32,15.00
2020,01,16,00,33,15.00
2020,01,16,00,34,12.40
2020,01,16,00,35,17.00
2020,01,16,00,36,14.10
2020,01,16,00,37,12.10
2020,01,16,00,38,15.40
2020,01,16,00,39,14.60
2020,01,16,00,40,13.70
2020,01,16,00,41,11.20
2020,01,16,00,42,10.10
2020,01,16,00,43,11.20
2020,01,16,00,44,11.60
2020,01,16,00,45,9.70
2020,01,16,00,46,11.80
2020,01,16,00,47,12.80
2020,01,16,00,48,12.00
2020,01,16,00,49,12.00
2020,01,16,00,50,9.10
2020,01,16,00,51,8.90
2020,01,16,00,52,9.90
2020,01,16,00,53,8.70
2020,01,16,00,54,7.30
2020,01,16,00,55,6.40
2020,01,16,00,56,7.00
2020,01,16,00,57,5.90
2020,01,16,00,58,6.50
2020,01,16,00,59,8.70
2020,01,16,01,00,9.10
2020,01,16,01,01,7.70
2020,01,16,01,02,5.60
2020,01,16,01,03,5.40
2020,01,16,01,04,4.90
2020,01,16,01,05,5.20
2020,01,16,01,06,6.20
2020,01,16,01,07,7.10
2020,01,16,01,08,6.40
2020,01,16,01,09,10.10
2020,01,16,01,10,7.70
2020,01,16,01,11,11.40
2020,01,16,01,12,12.00
2020,01,16,01,13,13.50
2020,01,16,01,14,14.90
2020,01,16,01,15,20.70
2020,01,16,01,16,28.30
2020,01,16,01,17,20.90
2020,01,16,01,18,33.90
2020,01,16,01,19,21.10
2020,01,16,01,20,27.80
2020,01,16,01,21,25.50
2020,01,16,01,22,24.30
2020,01,16,01,23,23.90
2020,01,16,01,24,27.70
2020,01,16,01,25,27.50
2020,01,16,01,26,28.30
2020,01,16,01,27,23.50
2020,01,16,01,28,26.40
2020,01,16,01,29,19.50
2020,01,16,01,30,20.90
2020,01,16,01,31,21.70
2020,01,16,01,32,23.50
2020,01,16,01,33,23.20
2020,01,16,01,34,30.30
2020,01,16,01,35,22.70
2020,01,16,01,36,23.30
2020,01,16,01,37,23.50
2020,01,16,01,38,20.80
2020,01,16,01,39,23.40
2020,01,16,01,40,21.90
2020,01,16,01,41,17.50
2020,01,16,01,42,19.70
2020,01,16,01,43,21.20
2020,01,16,01,44,23.30
2020,01,16,01,45,19.10
2020,01,16,01,46,20.90
2020,01,16,01,47,23.60
2020,01,16,01,48,21.20
2020,01,16,01,49,21.80
2020,01,16,01,50,21.90
2020,01,16,01,51,20.00
2020,01,16,01,52,20.90
2020,01,16,01,53,19.40
2020,01,16,01,54,18.10
2020,01,16,01,55,27.70
2020,01,16,01,56,16.30
2020,01,16,01,57,19.60
2020,01,16,01,58,20.70
2020,01,16,01,59,24.20
2020,01,16,02,00,22.80
2020,01,16,02,01,16.40
2020,01,16,02,02,24.50
2020,01,16,02,03,23.80
2020,01,16,02,04,21.30
2020,01,16,02,05,14.80
2020,01,16,02,06,16.60
2020,01,16,02,07,16.60
2020,01,16,02,08,13.60
2020,01,16,02,09,17.50
2020,01,16,02,10,15.70
2020,01,16,02,11,19.60
2020,01,16,02,12,14.60
2020,01,16,02,13,15.40
2020,01,16,02,14,15.90
2020,01,16,02,15,13.20
2020,01,16,02,16,14.00
2020,01,16,02,17,9.80
2020,01,16,02,18,11.70
2020,01,16,02,19,15.20
2020,01,16,02,20,15.70
2020,01,16,02,21,13.60
2020,01,16,02,22,8.70
2020,01,16,02,23,10.60
2020,01,16,02,24,9.50
2020,01,16,02,25,10.70
2020,01,16,02,26,10.30
2020,01,16,02,27,9.10
2020,01,16,02,28,9.40
2020,01,16,02,29,8.90
2020,01,16,02,30,9.20
2020,01,16,02,31,6.90
2020,01,16,02,32,9.90
2020,01,16,02,33,6.70
2020,01,16,02,34,4.70
2020,01,16,02,35,5.10
2020,01,16,02,36,8.20
2020,01,16,02,37,8.70
2020,01,16,02,38,7.10
2020,01,16,02,39,9.10
2020,01,16,02,40,9.60
2020,01,16,02,41,8.90
2020,01,16,02,42,5.40
2020,01,16,02,43,9.20
2020,01,16,02,44,8.90
2020,01,16,02,45,7.40
2020,01,16,02,46,5.40
2020,01,16,02,47,10.20
2020,01,16,02,48,8.70
2020,01,16,02,49,6.80
2020,01,16,02,50,7.50
2020,01,16,02,51,2.80
2020,01,16,02,52,6.00
2020,01,16,02,53,9.70
2020,01,16,02,54,6.50
2020,01,16,02,55,11.00
2020,01,16,02,56,13.90
2020,01,16,02,57,10.40
2020,01,16,02,58,6.70
2020,01,16,02,59,8.60
2020,01,16,03,00,4.40
2020,01,16,03,01,6.10
2020,01,16,03,02,5.20
2020,01,16,03,03,4.00
2020,01,16,03,04,10.50
2020,01,16,03,05,10.40
2020,01,16,03,06,5.20
2020,01,16,03,07,3.50
2020,01,16,03,08,2.20
2020,01,16,03,09,2.70
2020,01,16,03,10,0.30
2020,01,16,03,11,0.40
2020,01,16,03,12,0.30
2020,01,16,03,13,2.30
2020,01,16,03,14,0.40
2020,01,16,03,15,1.90
2020,01,16,03,16,0.60
2020,01,16,03,17,0.00
2020,01,16,03,18,0.90
2020,01,16,03,19,2.70
2020,01,16,03,20,0.60
2020,01,16,03,21,2.60
2020,01,16,03,22,4.60
2020,01,16,03,23,0.00
2020,01,16,03,24,0.10
2020,01,16,03,25,2.20
2020,01,16,03,26,2.00
2020,01,16,03,27,0.10
2020,01,16,03,28,0.60
2020,01,16,03,29,1.70
2020,01,16,03,30,1.70
2020,01,16,03,31,0.50
2020,01,16,03,32,0.60
2020,01,16,03,33,3.40
2020,01,16,03,34,3.30
2020,01,16,03,35,4.10
2020,01,16,03,36,4.30
2020,01,16,03,37,5.50
2020,01,16,03,38,3.90
2020,01,16,03,39,3.40
2020,01,16,03,40,5.60
2020,01,16,03,41,6.50
2020,01,16,03,42,5.60
2020,01,16,03,43,5.10
2020,01,16,03,44,4.90
2020,01,16,03,45,4.50
2020,01,16,03,46,4.30
2020,01,16,03,47,3.90
2020,01,16,03,48,4.70
2020,01,16,03,49,3.40
2020,01,16,03,50,3.70
2020,01,16,03,51,3.70
2020,01,16,03,52,4.70
2020,01,16,03,53,2.70
2020,01,16,03,54,1.80
2020,01,16,03,55,1.60
2020,01,16,03,56,0.10
2020,01,16,03,57,2.20
2020,01,16,03,58,3.00
2020,01,16,03,59,3.10
2020,01,16,04,00,5.10
2020,01,16,04,01,4.70
2020,01,16,04,02,3.30
2020,01,16,04,03,3.10
2020,01,16,04,04,2.30
2020,01,16,04,05,1.50
2020,01,16,04,06,2.50
2020,01,16,04,07,0.60
2020,01,16,04,08,0.00
2020,01,16,04,09,1.00
2020,01,16,04,10,1.50
2020,01,16,04,11,1.10
2020,01,16,04,12,1.10
2020,01,16,04,13,2.50
2020,01,16,04,14,0.80
2020,01,16,04,15,0.00
2020,01,16,04,16,0.10
2020,01,16,04,17,0.00
2020,01,16,04,18,0.00
2020,01,16,04,19,0.00
2020,01,16,04,20,0.00
2020,01,16,04,21,0.00
2020,01,16,04,22,0.00
2020,01,16,04,23,0.00
2020,01,16,04,24,0.00
2020,01,16,04,25,0.00
2020,01,16,04,26,0.80
2020,01,16,04,27,3.50
2020,01,16,04,28,4.10
2020,01,16,04,29,5.40
2020,01,16,04,30,7.60
2020,01,16,04,31,6.40
2020,01,16,04,32,2.00
2020,01,16,04,33,1.50
2020,01,16,04,34,4.30
2020,01,16,04,35,4.70
2020,01,16,04,36,5.20
2020,01,16,04,37,4.60
2020,01,16,04,38,8.70
2020,01,16,04,39,2.20
2020,01,16,04,40,1.70
2020,01,16,04,41,3.40
2020,01,16,04,42,4.40
2020,01,16,04,43,4.40
2020,01,16,04,44,5.00
2020,01,16,04,45,4.10
2020,01,16,04,46,2.70
2020,01,16,04,47,2.60
2020,01,16,04,48,1.30
2020,01,16,04,49,0.00
2020,01,16,04,50,0.10
2020,01,16,04,51,0.00
2020,01,16,04,52,1.30
2020,01,16,04,53,0.80
2020,01,16,04,54,1.00
2020,01,16,04,55,2.00
2020,01,16,04,56,3.10
2020,01,16,04,57,1.70
2020,01,16,04,58,3.00
2020,01,16,04,59,3.50
2020,01,16,05,00,3.90
2020,01,16,05,01,5.00
2020,01,16,05,02,4.80
2020,01,16,05,03,4.50
2020,01,16,05,04,3.90
2020,01,16,05,05,3.90
2020,01,16,05,06,3.90
2020,01,16,05,07,5.90
2020,01,16,05,08,0.20
2020,01,16,05,09,1.00
2020,01,16,05,10,0.50
2020,01,16,05,11,0.20
2020,01,16,05,12,0.00
2020,01,16,05,13,0.00
2020,01,16,05,14,0.00
2020,01,16,05,15,0.00
2020,01,16,05,16,0.00
2020,01,16,05,17,0.00
2020,01,16,05,18,0.00
2020,01,16,05,19,0.00
2020,01,16,05,20,0.10
2020,01,16,05,21,0.00
2020,01,16,05,22,0.00
2020,01,16,05,23,0.00
2020,01,16,05,24,0.60
2020,01,16,05,25,1.80
2020,01,16,05,26,4.30
2020,01,16,05,27,4.50
2020,01,16,05,28,4.60
2020,01,16,05,29,4.40
2020,01,16,05,30,3.00
2020,01,16,05,31,2.50
2020,01,16,05,32,3.40
2020,01,16,05,33,2.50
2020,01,16,05,34,3.50
2020,01,16,05,35,3.10
2020,01,16,05,36,3.40
2020,01,16,05,37,0.70
2020,01,16,05,38,0.50
2020,01,16,05,39,1.90
2020,01,16,05,40,1.80
2020,01,16,05,41,2.10
2020,01,16,05,42,1.80
2020,01,16,05,43,2.70
2020,01,16,05,44,2.70
2020,01,16,05,45,2.40
2020,01,16,05,46,3.00
2020,01,16,05,47,1.40
2020,01,16,05,48,1.80
2020,01,16,05,49,0.80
2020,01,16,05,50,0.00
2020,01,16,05,51,0.00
2020,01,16,05,52,0.00
2020,01,16,05,53,0.00
2020,01,16,05,54,0.10
2020,01,16,05,55,0.20
2020,01,16,05,56,0.00
2020,01,16,05,57,0.00
2020,01,16,05,58,0.00
2020,01,16,05,59,0.00
2020,01,16,06,00,0.00
2020,01,16,06,01,0.00
2020,01,16,06,02,0.00
2020,01,16,06,03,0.00
2020,01,16,06,04,0.00
2020,01,16,06,05,0.10
2020,01,16,06,06,0.00
2020,01,16,06,07,0.00
2020,01,16,06,08,0.00
2020,01,16,06,09,0.10
2020,01,16,06,10,0.00
2020,01,16,06,11,0.20
2020,01,16,06,12,1.80
2020,01,16,06,13,0.10
2020,01,16,06,14,0.10
2020,01,16,06,15,0.00
2020,01,16,06,16,0.90
2020,01,16,06,17,4.10
2020,01,16,06,18,2.70
2020,01,16,06,19,3.10
2020,01,16,06,20,2.60
2020,01,16,06,21,0.50
2020,01,16,06,22,0.00
2020,01,16,06,23,0.20
2020,01,16,06,24,0.70
2020,01,16,06,25,1.10
2020,01,16,06,26,0.00
2020,01,16,06,27,0.20
2020,01,16,06,28,0.00
2020,01,16,06,29,0.00
2020,01,16,06,30,0.60
2020,01,16,06,31,0.00
2020,01,16,06,32,0.60
2020,01,16,06,33,0.40
2020,01,16,06,34,0.00
2020,01,16,06,35,0.00
2020,01,16,06,36,0.00
2020,01,16,06,37,0.90
2020,01,16,06,38,1.80
2020,01,16,06,39,4.30
2020,01,16,06,40,2.80
2020,01,16,06,41,4.60
2020,01,16,06,42,4.10
2020,01,16,06,43,5.10
2020,01,16,06,44,4.70
2020,01,16,06,45,3.90
2020,01,16,06,46,3.00
2020,01,16,06,47,5.40
2020,01,16,06,48,5.10
2020,01,16,06,49,3.60
2020,01,16,06,50,2.70
2020,01,16,06,51,3.80
2020,01,16,06,52,2.80
2020,01,16,06,53,2.50
2020,01,16,06,54,3.00
2020,01,16,06,55,2.30
2020,01,16,06,56,2.60
2020,01,16,06,57,1.40
2020,01,16,06,58,2.30
2020,01,16,06,59,1.90
2020,01,16,07,00,2.40
2020,01,16,07,01,2.60
2020,01,16,07,02,1.40
2020,01,16,07,03,2.80
2020,01,16,07,04,3.30
2020,01,16,07,05,4.60
2020,01,16,07,06,4.10
2020,01,16,07,07,2.30
2020,01,16,07,08,0.40
2020,01,16,07,09,0.00
2020,01,16,07,10,0.00
2020,01,16,07,11,0.00
2020,01,16,07,12,0.00
2020,01,16,07,13,0.20
2020,01,16,07,14,0.20
2020,01,16,07,15,0.60
2020,01,16,07,16,2.50
2020,01,16,07,17,2.80
2020,01,16,07,18,4.30
2020,01,16,07,19,2.30
2020,01,16,07,20,1.80
2020,01,16,07,21,1.60
2020,01,16,07,22,2.10
2020,01,16,07,23,0.10
2020,01,16,07,24,0.50
2020,01,16,07,25,0.00
2020,01,16,07,26,0.30
2020,01,16,07,27,2.20
2020,01,16,07,28,2.60
2020,01,16,07,29,2.80
2020,01,16,07,30,3.40
2020,01,16,07,31,2.30
2020,01,16,07,32,1.10
2020,01,16,07,33,0.00
2020,01,16,07,34,0.10
2020,01,16,07,35,0.00
2020,01,16,07,36,0.00
2020,01,16,07,37,0.00
2020,01,16,07,38,0.60
2020,01,16,07,39,0.10
2020,01,16,07,40,0.30
2020,01,16,07,41,0.50
2020,01,16,07,42,1.00
2020,01,16,07,43,1.00
2020,01,16,07,44,0.40
2020,01,16,07,45,0.20
2020,01,16,07,46,0.50
2020,01,16,07,47,1.80
2020,01,16,07,48,0.10
2020,01,16,07,49,0.10
2020,01,16,07,50,0.00
2020,01,16,07,51,0.00
2020,01,16,07,52,0.50
2020,01,16,07,53,0.60
2020,01,16,07,54,0.30
2020,01,16,07,55,1.50
2020,01,16,07,56,2.10
2020,01,16,07,57,3.10
2020,01,16,07,58,1.50
2020,01,16,07,59,0.70
2020,01,16,08,00,1.60
2020,01,16,08,01,1.50
2020,01,16,08,02,0.50
2020,01,16,08,03,1.00
2020,01,16,08,04,0.10
2020,01,16,08,05,2.60
2020,01,16,08,06,2.60
2020,01,16,08,07,1.10
2020,01,16,08,08,2.80
2020,01,16,08,09,0.30
2020,01,16,08,10,2.60
2020,01,16,08,11,3.80
2020,01,16,08,12,1.70
2020,01,16,08,13,2.70
2020,01,16,08,14,2.60
2020,01,16,08,15,3.60
2020,01,16,08,16,2.10
2020,01,16,08,17,0.10
2020,01,16,08,18,2.90
2020,01,16,08,19,0.30
2020,01,16,08,20,0.40
2020,01,16,08,21,2.30
2020,01,16,08,22,4.50
2020,01,16,08,23,1.30
2020,01,16,08,24,0.20
2020,01,16,08,25,0.10
2020,01,16,08,26,0.00
2020,01,16,08,27,0.30
2020,01,16,08,28,0.90
2020,01,16,08,29,1.00
2020,01,16,08,30,0.10
2020,01,16,08,31,0.00
2020,01,16,08,32,0.10
2020,01,16,08,33,0.00
2020,01,16,08,34,0.00
2020,01,16,08,35,0.10
2020,01,16,08,36,0.50
2020,01,16,08,37,1.30
2020,01,16,08,38,2.10
2020,01,16,08,39,2.60
2020,01,16,08,40,6.50
2020,01,16,08,41,5.90
2020,01,16,08,42,2.50
2020,01,16,08,43,1.70
2020,01,16,08,44,0.90
2020,01,16,08,45,0.50
2020,01,16,08,46,0.70
2020,01,16,08,47,6.00
2020,01,16,08,48,8.50
2020,01,16,08,49,7.50
2020,01,16,08,50,13.00
2020,01,16,08,51,11.90
2020,01,16,08,52,10.30
2020,01,16,08,53,10.30
2020,01,16,08,54,9.90
2020,01,16,08,55,9.70
2020,01,16,08,56,10.40
2020,01,16,08,57,13.70
2020,01,16,08,58,12.40
2020,01,16,08,59,10.50
2020,01,16,09,00,14.40
2020,01,16,09,01,12.90
2020,01,16,09,02,17.30
2020,01,16,09,03,12.60
2020,01,16,09,04,16.60
2020,01,16,09,05,13.10
2020,01,16,09,06,11.10
2020,01,16,09,07,13.80
2020,01,16,09,08,17.90
2020,01,16,09,09,18.20
2020,01,16,09,10,16.40
2020,01,16,09,11,18.20
2020,01,16,09,12,17.20
2020,01,16,09,13,14.30
2020,01,16,09,14,13.30
2020,01,16,09,15,14.20
2020,01,16,09,16,15.40
2020,01,16,09,17,15.60
2020,01,16,09,18,15.00
2020,01,16,09,19,17.60
2020,01,16,09,20,14.70
2020,01,16,09,21,16.20
2020,01,16,09,22,20.70
2020,01,16,09,23,12.30
2020,01,16,09,24,14.40
2020,01,16,09,25,13.30
2020,01,16,09,26,18.50
2020,01,16,09,27,16.20
2020,01,16,09,28,19.00
2020,01,16,09,29,20.00
2020,01,16,09,30,15.20
2020,01,16,09,31,13.60
2020,01,16,09,32,13.50
2020,01,16,09,33,12.10
2020,01,16,09,34,17.40
2020,01,16,09,35,15.10
2020,01,16,09,36,14.60
2020,01,16,09,37,13.10
2020,01,16,09,38,17.20
2020,01,16,09,39,15.60
2020,01,16,09,40,16.50
2020,01,16,09,41,18.30
2020,01,16,09,42,14.30
2020,01,16,09,43,14.90
2020,01,16,09,44,13.60
2020,01,16,09,45,14.60
2020,01,16,09,46,15.30
2020,01,16,09,47,18.10
2020,01,16,09,48,19.70
2020,01,16,09,49,13.90
2020,01,16,09,50,12.70
2020,01,16,09,51,17.80
2020,01,16,09,52,16.00
2020,01,16,09,53,14.30
2020,01,16,09,54,13.80
2020,01,16,09,55,12.80
2020,01,16,09,56,17.80
2020,01,16,09,57,19.80
2020,01,16,09,58,20.30
2020,01,16,09,59,14.30
2020,01,16,10,00,14.00
2020,01,16,10,01,14.90
2020,01,16,10,02,18.50
2020,01,16,10,03,13.50
2020,01,16,10,04,15.40
2020,01,16,10,05,17.30
2020,01,16,10,06,13.80
2020,01,16,10,07,18.40
2020,01,16,10,08,18.10
2020,01,16,10,09,17.10
2020,01,16,10,10,20.70
2020,01,16,10,11,18.20
2020,01,16,10,12,21.80
2020,01,16,10,13,24.70
2020,01,16,10,14,26.50
2020,01,16,10,15,21.50
2020,01,16,10,16,25.90
2020,01,16,10,17,14.60
2020,01,16,10,18,24.20
2020,01,16,10,19,19.10
2020,01,16,10,20,14.60
2020,01,16,10,21,16.80
2020,01,16,10,22,13.50
2020,01,16,10,23,10.90
2020,01,16,10,24,13.70
2020,01,16,10,25,13.60
2020,01,16,10,26,13.40
2020,01,16,10,27,13.00
2020,01,16,10,28,14.60
2020,01,16,10,29,15.40
2020,01,16,10,30,15.30
2020,01,16,10,31,14.60
2020,01,16,10,32,16.60
2020,01,16,10,33,17.40
2020,01,16,10,34,15.90
2020,01,16,10,35,16.00
2020,01,16,10,36,13.70
2020,01,16,10,37,16.40
2020,01,16,10,38,14.90
2020,01,16,10,39,15.80
2020,01,16,10,40,20.40
2020,01,16,10,41,19.10
2020,01,16,10,42,15.20
2020,01,16,10,43,13.80
2020,01,16,10,44,20.20
2020,01,16,10,45,17.20
2020,01,16,10,46,16.20
2020,01,16,10,47,13.00
2020,01,16,10,48,15.90
2020,01,16,10,49,19.80
2020,01,16,10,50,19.00
2020,01,16,10,51,21.00
2020,01,16,10,52,14.80
2020,01,16,10,53,12.40
2020,01,16,10,54,12.10
2020,01,16,10,55,15.00
2020,01,16,10,56,15.40
2020,01,16,10,57,17.30
2020,01,16,10,58,16.70
2020,01,16,10,59,15.00
2020,01,16,11,00,18.10
2020,01,16,11,01,19.10
2020,01,16,11,02,16.60
2020,01,16,11,03,20.50
2020,01,16,11,04,16.20
2020,01,16,11,05,11.90
2020,01,16,11,06,13.50
2020,01,16,11,07,14.40
2020,01,16,11,08,15.70
2020,01,16,11,09,14.70
2020,01,16,11,10,14.80
2020,01,16,11,11,18.20
2020,01,16,11,12,13.00
2020,01,16,11,13,14.90
2020,01,16,11,14,19.20
2020,01,16,11,15,20.50
2020,01,16,11,16,13.60
2020,01,16,11,17,16.90
2020,01,16,11,18,15.70
2020,01,16,11,19,16.40
2020,01,16,11,20,14.00
2020,01,16,11,21,14.00
2020,01,16,11,22,16.70
2020,01,16,11,23,22.70
2020,01,16,11,24,15.90
2020,01,16,11,25,16.40
2020,01,16,11,26,17.70
2020,01,16,11,27,20.70
2020,01,16,11,28,18.50
2020,01,16,11,29,15.60
2020,01,16,11,30,16.00
2020,01,16,11,31,16.80
2020,01,16,11,32,18.00
2020,01,16,11,33,10.60
2020,01,16,11,34,15.90
2020,01,16,11,35,14.40
2020,01,16,11,36,12.40
2020,01,16,11,37,20.20
2020,01,16,11,38,11.00
2020,01,16,11,39,11.00
2020,01,16,11,40,10.00
2020,01,16,11,41,16.20
2020,01,16,11,42,10.70
2020,01,16,11,43,10.10
2020,01,16,11,44,18.00
2020,01,16,11,45,18.20
2020,01,16,11,46,14.70
2020,01,16,11,47,13.00
2020,01,16,11,48,12.30
2020,01,16,11,49,10.80
2020,01,16,11,50,14.80
2020,01,16,11,51,18.90
2020,01,16,11,52,15.60
2020,01,16,11,53,20.80
2020,01,16,11,54,10.50
2020,01,16,11,55,12.20
2020,01,16,11,56,12.60
2020,01,16,11,57,16.00
2020,01,16,11,58,17.30
2020,01,16,11,59,10.80
2020,01,16,12,00,12.90
2020,01,16,12,01,11.40
2020,01,16,12,02,15.30
2020,01,16,12,03,16.00
2020,01,16,12,04,14.90
2020,01,16,12,05,11.60
2020,01,16,12,06,12.90
2020,01,16,12,07,15.10
2020,01,16,12,08,10.60
2020,01,16,12,09,16.20
2020,01,16,12,10,15.50
2020,01,16,12,11,11.30
2020,01,16,12,12,12.10
2020,01,16,12,13,14.60
2020,01,16,12,14,17.60
2020,01,16,12,15,16.70
2020,01,16,12,16,13.60
2020,01,16,12,17,13.10
2020,01,16,12,18,9.70
2020,01,16,12,19,12.20
2020,01,16,12,20,12.30
2020,01,16,12,21,12.50
2020,01,16,12,22,12.10
2020,01,16,12,23,5.10
2020,01,16,12,24,15.10
2020,01,16,12,25,10.80
2020,01,16,12,26,8.80
2020,01,16,12,27,9.80
2020,01,16,12,28,14.30
2020,01,16,12,29,19.20
2020,01,16,12,30,14.20
2020,01,16,12,31,19.60
2020,01,16,12,32,18.90
2020,01,16,12,33,18.50
2020,01,16,12,34,16.00
2020,01,16,12,35,24.10
2020,01,16,12,36,16.50
2020,01,16,12,37,12.30
2020,01,16,12,38,13.00
2020,01,16,12,39,14.70
2020,01,16,12,40,12.10
2020,01,16,12,41,10.80
2020,01,16,12,42,14.60
2020,01,16,12,43,13.70
2020,01,16,12,44,9.60
2020,01,16,12,45,10.70
2020,01,16,12,46,11.10
2020,01,16,12,47,10.20
2020,01,16,12,48,9.00
2020,01,16,12,49,8.60
2020,01,16,12,50,12.30
2020,01,16,12,51,12.20
2020,01,16,12,52,14.10
2020,01,16,12,53,15.90
2020,01,16,12,54,12.20
2020,01,16,12,55,13.50
2020,01,16,12,56,14.30
2020,01,16,12,57,13.80
2020,01,16,12,58,10.00
2020,01,16,12,59,10.00
2020,01,16,13,00,13.10
2020,01,16,13,01,11.60
2020,01,16,13,02,4.00
2020,01,16,13,03,7.10
2020,01,16,13,04,5.10
2020,01,16,13,05,6.50
2020,01,16,13,06,7.50
2020,01,16,13,07,9.90
2020,01,16,13,08,8.10
2020,01,16,13,09,3.70
2020,01,16,13,10,3.80
2020,01,16,13,11,5.50
2020,01,16,13,12,9.90
2020,01,16,13,13,6.20
2020,01,16,13,14,6.70
2020,01,16,13,15,6.80
2020,01,16,13,16,6.40
2020,01,16,13,17,6.90
2020,01,16,13,18,8.50
2020,01,16,13,19,7.90
2020,01,16,13,20,8.90
2020,01,16,13,21,7.80
2020,01,16,13,22,7.70
2020,01,16,13,23,10.00
2020,01,16,13,24,12.30
2020,01,16,13,25,8.10
2020,01,16,13,26,6.80
2020,01,16,13,27,10.30
2020,01,16,13,28,6.30
2020,01,16,13,29,9.60
2020,01,16,13,30,16.30
2020,01,16,13,31,12.00
2020,01,16,13,32,11.40
2020,01,16,13,33,11.70
2020,01,16,13,34,8.30
2020,01,16,13,35,12.20
2020,01,16,13,36,11.00
2020,01,16,13,37,7.80
2020,01,16,13,38,12.90
2020,01,16,13,39,14.60
2020,01,16,13,40,9.30
2020,01,16,13,41,8.80
2020,01,16,13,42,12.00
2020,01,16,13,43,11.20
2020,01,16,13,44,8.80
2020,01,16,13,45,12.40
2020,01,16,13,46,9.30
2020,01,16,13,47,14.20
2020,01,16,13,48,13.60
2020,01,16,13,49,11.40
2020,01,16,13,50,9.60
2020,01,16,13,51,9.50
2020,01,16,13,52,8.50
2020,01,16,13,53,11.80
2020,01,16,13,54,10.80
2020,01,16,13,55,8.50
2020,01,16,13,56,7.30
2020,01,16,13,57,11.30
2020,01,16,13,58,9.30
2020,01,16,13,59,9.60
2020,01,16,14,00,13.40
2020,01,16,14,01,8.80
2020,01,16,14,02,7.50
2020,01,16,14,03,6.10
2020,01,16,14,04,9.30
2020,01,16,14,05,10.00
2020,01,16,14,06,9.00
2020,01,16,14,07,7.70
2020,01,16,14,08,8.50
2020,01,16,14,09,7.10
2020,01,16,14,10,6.40
2020,01,16,14,11,10.20
2020,01,16,14,12,9.40
2020,01,16,14,13,7.10
2020,01,16,14,14,7.30
2020,01,16,14,15,10.40
2020,01,16,14,16,8.40
2020,01,16,14,17,10.30
2020,01,16,14,18,7.40
2020,01,16,14,19,9.60
2020,01,16,14,20,8.80
2020,01,16,14,21,7.80
2020,01,16,14,22,5.00
2020,01,16,14,23,6.70
2020,01,16,14,24,10.70
2020,01,16,14,25,6.10
2020,01,16,14,26,5.00
2020,01,16,14,27,8.50
2020,01,16,14,28,10.60
2020,01,16,14,29,14.80
2020,01,16,14,30,14.50
2020,01,16,14,31,10.00
2020,01,16,14,32,5.90
2020,01,16,14,33,4.60
2020,01,16,14,34,8.80
2020,01,16,14,35,8.10
2020,01,16,14,36,6.70
2020,01,16,14,37,6.80
2020,01,16,14,38,7.10
2020,01,16,14,39,7.40
2020,01,16,14,40,8.30
2020,01,16,14,41,6.80
2020,01,16,14,42,7.60
2020,01,16,14,43,3.60
2020,01,16,14,44,4.80
2020,01,16,14,45,12.40
2020,01,16,14,46,12.60
2020,01,16,14,47,10.10
2020,01,16,14,48,14.00
2020,01,16,14,49,11.40
2020,01,16,14,50,7.50
2020,01,16,14,51,8.80
2020,01,16,14,52,9.80
2020,01,16,14,53,8.50
2020,01,16,14,54,6.30
2020,01,16,14,55,7.40
2020,01,16,14,56,5.90
2020,01,16,14,57,11.00
2020,01,16,14,58,8.00
2020,01,16,14,59,8.20
2020,01,16,15,00,9.00
2020,01,16,15,01,8.40
2020,01,16,15,02,8.00
2020,01,16,15,03,9.70
2020,01,16,15,04,10.40
2020,01,16,15,05,7.50
2020,01,16,15,06,12.70
2020,01,16,15,07,13.70
2020,01,16,15,08,14.00
2020,01,16,15,09,11.10
2020,01,16,15,10,11.00
2020,01,16,15,11,9.20
2020,01,16,15,12,7.20
2020,01,16,15,13,9.10
2020,01,16,15,14,3.90
2020,01,16,15,15,7.70
2020,01,16,15,16,13.20
2020,01,16,15,17,13.70
2020,01,16,15,18,13.70
2020,01,16,15,19,7.60
2020,01,16,15,20,4.80
2020,01,16,15,21,5.50
2020,01,16,15,22,7.80
2020,01,16,15,23,6.30
2020,01,16,15,24,4.90
2020,01,16,15,25,4.80
2020,01,16,15,26,4.30
2020,01,16,15,27,6.40
2020,01,16,15,28,4.60
2020,01,16,15,29,7.20
2020,01,16,15,30,3.40
2020,01,16,15,31,5.90
2020,01,16,15,32,5.90
2020,01,16,15,33,6.00
2020,01,16,15,34,4.20
2020,01,16,15,35,6.70
2020,01,16,15,36,5.00
2020,01,16,15,37,5.80
2020,01,16,15,38,5.60
2020,01,16,15,39,6.90
2020,01,16,15,40,4.10
2020,01,16,15,41,4.20
2020,01,16,15,42,3.70
2020,01,16,15,43,4.80
2020,01,16,15,44,8.00
2020,01,16,15,45,6.30
2020,01,16,15,46,9.70
2020,01,16,15,47,6.40
2020,01,16,15,48,6.80
2020,01,16,15,49,5.60
2020,01,16,15,50,5.30
2020,01,16,15,51,6.50
2020,01,16,15,52,9.10
2020,01,16,15,53,8.80
2020,01,16,15,54,7.90
2020,01,16,15,55,8.70
2020,01,16,15,56,8.10
2020,01,16,15,57,6.40
2020,01,16,15,58,6.60
2020,01,16,15,59,6.10
2020,01,16,16,00,5.70
2020,01,16,16,01,8.30
2020,01,16,16,02,6.10
2020,01,16,16,03,5.90
2020,01,16,16,04,8.90
2020,01,16,16,05,7.30
2020,01,16,16,06,9.20
2020,01,16,16,07,8.10
2020,01,16,16,08,6.00
2020,01,16,16,09,6.50
2020,01,16,16,10,8.40
2020,01,16,16,11,9.60
2020,01,16,16,12,7.50
2020,01,16,16,13,6.00
2020,01,16,16,14,6.90
2020,01,16,16,15,7.20
2020,01,16,16,16,7.90
2020,01,16,16,17,6.30
2020,01,16,16,18,9.40
2020,01,16,16,19,8.90
2020,01,16,16,20,6.00
2020,01,16,16,21,4.10
2020,01,16,16,22,4.10
2020,01,16,16,23,1.10
2020,01,16,16,24,0.10
2020,01,16,16,25,1.20
2020,01,16,16,26,3.20
2020,01,16,16,27,4.90
2020,01,16,16,28,6.00
2020,01,16,16,29,5.40
2020,01,16,16,30,4.60
2020,01,16,16,31,4.30
2020,01,16,16,32,4.10
2020,01,16,16,33,5.20
2020,01,16,16,34,5.00
2020,01,16,16,35,4.70
2020,01,16,16,36,4.60
2020,01,16,16,37,4.20
2020,01,16,16,38,2.80
2020,01,16,16,39,3.30
2020,01,16,16,40,4.30
2020,01,16,16,41,3.70
2020,01,16,16,42,2.80
2020,01,16,16,43,3.10
2020,01,16,16,44,4.10
2020,01,16,16,45,4.70
2020,01,16,16,46,3.40
2020,01,16,16,47,4.00
2020,01,16,16,48,3.70
2020,01,16,16,49,3.80
2020,01,16,16,50,3.90
2020,01,16,16,51,3.10
2020,01,16,16,52,3.10
2020,01,16,16,53,2.90
2020,01,16,16,54,2.20
2020,01,16,16,55,2.60
2020,01,16,16,56,2.50
2020,01,16,16,57,1.80
2020,01,16,16,58,0.70
2020,01,16,16,59,0.10
2020,01,16,17,00,0.00
2020,01,16,17,01,0.00
2020,01,16,17,02,0.00
2020,01,16,17,03,0.00
2020,01,16,17,04,0.00
2020,01,16,17,05,0.00
2020,01,16,17,06,0.00
2020,01,16,17,07,0.20
2020,01,16,17,08,1.40
2020,01,16,17,09,1.40
2020,01,16,17,10,1.30
2020,01,16,17,11,1.80
2020,01,16,17,12,2.40
2020,01,16,17,13,3.30
2020,01,16,17,14,2.90
2020,01,16,17,15,2.40
2020,01,16,17,16,3.00
2020,01,16,17,17,2.20
2020,01,16,17,18,2.40
2020,01,16,17,19,2.40
2020,01,16,17,20,2.80
2020,01,16,17,21,2.80
2020,01,16,17,22,2.50
2020,01,16,17,23,2.60
2020,01,16,17,24,2.30
2020,01,16,17,25,1.90
2020,01,16,17,26,1.90
2020,01,16,17,27,2.40
2020,01,16,17,28,3.00
2020,01,16,17,29,3.10
2020,01,16,17,30,3.30
2020,01,16,17,31,2.60
2020,01,16,17,32,2.30
2020,01,16,17,33,3.00
2020,01,16,17,34,3.10
2020,01,16,17,35,2.80
2020,01,16,17,36,2.80
2020,01,16,17,37,1.20
2020,01,16,17,38,0.20
2020,01,16,17,39,0.50
2020,01,16,17,40,0.90
2020,01,16,17,41,2.60
2020,01,16,17,42,1.80
2020,01,16,17,43,2.00
2020,01,16,17,44,1.50
2020,01,16,17,45,0.80
2020,01,16,17,46,0.60
2020,01,16,17,47,1.60